User: anonymous
Location: Brno
(49.2000°N, 16.6330°E)
Time: 02:10:16
(UTC+02:00)
Language:

Cosmos 2227 - Orbit

View from above orbital plane
View from above orbital plane
View from above satellite
View from above satellite

Ground track
Ground track

The orbit data is extracted from the following two-line orbital elements,

1 22284U 92093A   14241.36973836  .00000405  00000-0  24166-3 0  9528
2 22284 070.9778 219.5233 0020146 279.4526 230.4711 14.13167639118145
Epoch (UTC): 29 August 2014 08:52:25
Eccentricity: 0.0020146
inclination: 70.9778°
perigee height: 834 km
apogee height: 863 km
right ascension of ascending node: 219.5233°
argument of perigee: 279.4526°
revolutions per day: 14.13167639
mean anomaly at epoch: 230.4711°
orbit number at epoch: 11814

The dashed part of the orbit path shows where the satellite is in the earth's shadow,  

DLR